GW6363 Weather Reports


time (UTC)temp
F
wind
direction
speed
knots
gust
knots
rain 1hr
in
rain 24hr
in
rain mn
in
humidity
%
barometer
mb
20260505152325 71 96 2.6 2.6 0.00 0.00 0.00 48 1015.7
20260505151825 72 72 5.2 7.0 0.00 0.00 0.00 47 1015.7
20260505151322 72 77 0.0 1.7 0.00 0.00 0.00 52 1015.6
20260505150819 71 104 1.7 3.5 0.00 0.00 0.00 50 1015.5
20260505150317 70 121 0.0 3.5 0.00 0.00 0.00 53 1015.6
20260505140246 66 74 2.6 3.5 0.00 0.00 0.00 57 1015.8
20260505130210 62 73 0.9 1.7 0.00 0.00 0.00 65 1015.6
20260505124700 60 47 1.7 2.6 0.00 0.00 0.00 71 1015.4
20260505124157 60 71 2.6 2.6 0.00 0.00 0.00 72 1015.4
20260505123653 59 62 0.9 1.7 0.00 0.00 0.00 72 1015.3
20260505123150 59 59 1.7 1.7 0.00 0.00 0.00 72 1015.1
20260505122646 58 73 0.9 1.7 0.00 0.00 0.00 70 1015.3
20260505122143 57 50 0.0 1.7 0.00 0.00 0.00 73 1015.0
20260505121640 56 67 0.9 1.7 0.00 0.00 0.00 77 1014.9
20260505121137 55 74 0.9 1.7 0.00 0.00 0.00 81 1015.0
20260505120633 55 61 0.9 1.7 0.00 0.00 0.00 84 1015.0
20260505120129 54 66 0.9 1.7 0.00 0.00 0.00 85 1015.1
20260505115623 54 63 0.9 1.7 0.00 0.00 0.00 85 1015.0
20260505115121 53 70 1.7 1.7 0.00 0.00 0.00 86 1014.9
20260505114618 53 58 0.9 1.7 0.00 0.00 0.00 85 1015.0
20260505114114 52 43 0.9 1.7 0.00 0.00 0.00 85 1014.6
20260505113611 52 57 1.7 1.7 0.00 0.00 0.00 85 1014.8
20260505113108 52 71 0.9 1.7 0.00 0.00 0.00 85 1014.9
20260505112604 52 85 1.7 1.7 0.00 0.00 0.00 85 1014.8
20260505112103 52 87 0.9 1.7 0.00 0.00 0.00 86 1014.8
20260505111601 51 85 1.7 1.7 0.00 0.00 0.00 86 1014.5
20260505111058 51 87 1.7 2.6 0.00 0.00 0.00 85 1014.3
20260505110554 51 80 1.7 1.7 0.00 0.00 0.00 85 1014.4
20260505102027 52 83 1.7 1.7 0.00 0.00 0.00 82 1014.3
20260505101525 52 65 0.9 1.7 0.00 0.00 0.00 82 1014.3
20260505101021 53 44 0.0 0.9 0.00 0.00 0.00 82 1014.2
20260505100519 53 67 1.7 1.7 0.00 0.00 0.00 79 1014.1
20260505100016 53 47 0.9 0.9 0.00 0.00 0.00 80 1014.2
20260505095511 53 52 1.7 1.7 0.00 0.00 0.00 79 1014.3
20260505095008 53 68 1.7 1.7 0.00 0.00 0.00 79 1014.5
20260505094504 53 55 1.7 1.7 0.00 0.00 0.00 78 1014.3
20260505094001 54 73 1.7 1.7 0.00 0.00 0.00 78 1014.5
20260505093457 54 58 0.9 1.7 0.00 0.00 0.00 77 1014.3
20260505092955 54 80 0.9 1.7 0.00 0.00 0.00 76 1014.4
20260505092452 55 63 0.9 1.7 0.00 0.00 0.00 75 1014.5
20260505091950 55 81 0.9 1.7 0.00 0.00 0.00 75 1014.2
20260505091447 56 78 0.9 1.7 0.00 0.00 0.00 73 1014.3
20260505090945 57 71 0.9 1.7 0.00 0.00 0.00 72 1014.4
20260505090443 57 81 1.7 1.7 0.00 0.00 0.00 70 1014.3
20260505085940 58 92 1.7 2.6 0.00 0.00 0.00 68 1014.1
20260505085437 59 39 0.9 1.7 0.00 0.00 0.00 65 1014.1
20260505084936 59 52 1.7 1.7 0.00 0.00 0.00 64 1013.9
20260505084434 59 41 0.9 1.7 0.00 0.00 0.00 64 1014.0
20260505083931 59 310 0.0 1.7 0.00 0.00 0.00 64 1013.9
20260505083428 59 37 0.0 3.5 0.00 0.00 0.00 65 1013.9
20260505082924 59 43 0.9 1.7 0.00 0.00 0.00 66 1013.6
20260505082420 59 55 1.7 1.7 0.00 0.00 0.00 64 1014.0
20260505081918 59 59 0.9 1.7 0.00 0.00 0.00 64 1013.7
20260505081415 60 53 0.9 1.7 0.00 0.00 0.00 64 1013.7
20260505080911 60 58 1.7 1.7 0.00 0.00 0.00 64 1013.7
20260505080407 59 52 0.0 1.7 0.00 0.00 0.00 64 1013.7
20260505075903 59 12 0.0 2.6 0.00 0.00 0.00 66 1013.7
20260505075359 58 48 1.7 1.7 0.00 0.00 0.00 69 1013.5
20260505074857 57 41 1.7 1.7 0.00 0.00 0.00 69 1013.6
20260505074354 57 85 0.9 1.7 0.00 0.00 0.00 70 1013.6
20260505073851 58 71 0.9 1.7 0.00 0.00 0.00 68 1013.8
20260505073349 58 75 1.7 1.7 0.00 0.00 0.00 68 1013.9
20260505072846 59 51 0.9 1.7 0.00 0.00 0.00 67 1013.7
20260505072342 59 83 1.7 1.7 0.00 0.00 0.00 66 1013.6
20260505071838 59 95 1.7 1.7 0.00 0.00 0.00 65 1013.8
20260505071335 60 59 1.7 1.7 0.00 0.00 0.00 65 1013.7
20260505070833 60 53 0.9 1.7 0.00 0.00 0.00 64 1013.9
20260505070329 61 76 1.7 1.7 0.00 0.00 0.00 63 1013.8
20260505065824 61 57 1.7 1.7 0.00 0.00 0.00 62 1013.7
20260505065321 62 0 0.0 1.7 0.00 0.00 0.00 61 1013.7
20260505064819 62 70 0.9 1.7 0.00 0.00 0.00 60 1013.9
20260505064315 62 76 0.0 1.7 0.00 0.00 0.00 60 1013.8
20260505063814 62 22 1.7 1.7 0.00 0.00 0.00 60 1013.9
20260505063309 62 68 1.7 1.7 0.00 0.00 0.00 59 1013.8
20260505062806 62 66 0.9 3.5 0.00 0.00 0.00 59 1013.8
20260505062304 62 83 0.0 1.7 0.00 0.00 0.00 60 1013.7
20260505061800 63 3 0.0 4.3 0.00 0.00 0.00 59 1013.9
20260505061258 63 125 0.0 4.3 0.00 0.00 0.00 59 1013.7
20260505060755 63 348 0.0 3.5 0.00 0.00 0.00 59 1013.7
20260505060252 63 285 0.0 3.5 0.00 0.00 0.00 59 1013.7
20260505055748 63 73 1.7 1.7 0.00 0.00 0.00 59 1013.7
20260505055244 63 143 0.0 3.5 0.00 0.00 0.00 58 1013.7
20260505054742 63 82 1.7 3.5 0.00 0.00 0.00 58 1013.8
20260505054239 63 73 0.0 1.7 0.00 0.00 0.00 59 1013.9
20260505053737 63 43 0.0 1.7 0.00 0.00 0.00 58 1013.9
20260505053234 63 59 1.7 1.7 0.00 0.00 0.00 59 1013.9
20260505052731 63 50 2.6 2.6 0.00 0.00 0.00 59 1014.0
20260505052228 63 49 0.0 1.7 0.00 0.00 0.00 59 1013.7
20260505051725 63 104 0.9 1.7 0.00 0.00 0.00 59 1013.7
20260505051223 63 42 1.7 3.5 0.00 0.00 0.00 59 1013.6
20260505050720 63 89 0.0 0.9 0.00 0.00 0.00 59 1013.5
20260505050219 64 86 1.7 2.6 0.00 0.00 0.00 58 1013.6
20260505041648 65 72 0.0 1.7 0.00 0.00 0.00 57 1013.5
20260505041146 64 89 0.0 3.5 0.00 0.00 0.00 57 1013.6
20260505040643 64 56 1.7 2.6 0.00 0.00 0.00 58 1013.5
20260505040140 64 77 1.7 1.7 0.00 0.00 0.00 58 1013.4
20260505035636 64 58 0.0 1.7 0.00 0.00 0.00 58 1013.5
20260505035132 64 45 0.0 1.7 0.00 0.00 0.00 58 1013.6
20260505034629 64 51 0.0 1.7 0.00 0.00 0.00 58 1013.6
20260505034126 65 309 0.0 1.7 0.00 0.00 0.00 57 1013.5
20260505033622 65 355 0.0 0.9 0.00 0.00 0.00 57 1013.5
20260505033121 65 23 0.0 1.7 0.00 0.00 0.00 57 1013.4
20260505032619 65 296 0.9 1.7 0.00 0.00 0.00 56 1013.5
20260505032115 65 66 0.0 2.6 0.00 0.00 0.00 56 1013.6
20260505031612 65 322 0.0 4.3 0.00 0.00 0.00 57 1013.6
20260505031108 65 59 0.9 1.7 0.00 0.00 0.00 58 1013.7
20260505030605 65 348 0.0 0.9 0.00 0.00 0.00 56 1013.4
20260505025557 66 55 0.9 1.7 0.00 0.00 0.00 55 1013.7
20260505025056 66 86 1.7 1.7 0.00 0.00 0.00 54 1013.7
20260505024553 67 205 1.7 1.7 0.00 0.00 0.00 54 1013.7
20260505024050 67 39 0.0 1.7 0.00 0.00 0.00 54 1013.7
20260505023547 67 65 0.0 2.6 0.00 0.00 0.00 54 1013.8
20260505023045 67 93 1.7 3.5 0.00 0.00 0.00 53 1013.8
20260505022542 67 112 0.0 3.5 0.00 0.00 0.00 53 1013.6
20260505022039 67 38 0.0 3.5 0.00 0.00 0.00 53 1013.6
20260505021536 68 301 0.0 0.9 0.00 0.00 0.00 54 1013.8
20260505021033 68 69 0.0 2.6 0.00 0.00 0.00 53 1013.7
20260505020532 68 296 0.0 1.7 0.00 0.00 0.00 52 1013.7
20260505020030 69 50 1.7 3.5 0.00 0.00 0.00 52 1013.5
20260505015527 69 342 0.0 1.7 0.00 0.00 0.00 51 1013.6
20260505015023 69 76 0.0 1.7 0.00 0.00 0.00 51 1013.5
20260505014520 69 298 0.9 1.7 0.00 0.00 0.00 51 1013.5
20260505014018 69 74 2.6 2.6 0.00 0.00 0.00 50 1013.4
20260505013515 70 111 0.0 1.7 0.00 0.00 0.00 50 1013.5
20260505013012 70 65 4.3 4.3 0.00 0.00 0.00 50 1013.3
20260505012510 70 93 0.9 2.6 0.00 0.00 0.00 50 1013.5
20260505012007 70 127 3.5 5.2 0.00 0.00 0.00 50 1013.4
20260505011502 70 77 1.7 1.7 0.00 0.00 0.00 50 1013.2
20260505010959 70 263 0.0 1.7 0.00 0.00 0.00 50 1013.2
20260505010455 70 296 0.9 3.5 0.00 0.00 0.00 50 1013.3
20260505005951 70 51 2.6 4.3 0.00 0.00 0.00 49 1013.1
20260505005448 71 59 1.7 2.6 0.00 0.00 0.00 49 1013.1
20260505004946 71 205 0.9 2.6 0.00 0.00 0.00 49 1013.0
20260505004442 71 288 0.0 2.6 0.00 0.00 0.00 49 1012.8
20260505003939 71 107 3.5 4.3 0.00 0.00 0.00 49 1012.9
20260505003436 71 230 2.6 2.6 0.00 0.00 0.00 48 1013.1
20260505002932 71 289 1.7 1.7 0.00 0.00 0.00 47 1012.9
20260505002429 72 70 1.7 2.6 0.00 0.00 0.00 47 1012.9
20260505001927 72 62 2.6 3.5 0.00 0.00 0.00 46 1012.9
20260505001425 72 53 3.5 4.3 0.00 0.00 0.00 46 1012.8
20260505000921 73 89 0.0 2.6 0.00 0.00 0.00 46 1012.7
20260505000420 73 74 1.7 1.7 0.00 0.00 0.00 45 1012.8
20260504235916 73 56 0.9 4.3 0.00 0.00 0.00 44 1012.7
20260504235414 74 94 0.9 0.9 0.00 0.00 0.00 44 1012.8
20260504234909 74 61 0.0 2.6 0.00 0.00 0.00 44 1012.7
20260504234407 74 59 0.9 1.7 0.00 0.00 0.00 44 1012.7
20260504233903 74 72 0.9 0.9 0.00 0.00 0.00 46 1012.7
20260504233359 74 46 1.7 2.6 0.00 0.00 0.00 45 1012.6
20260504232856 74 26 0.0 2.6 0.00 0.00 0.00 44 1012.7
20260504232353 75 69 4.3 4.3 0.00 0.00 0.00 44 1012.7
20260504231850 75 88 0.9 1.7 0.00 0.00 0.00 43 1012.9
20260504231346 75 335 0.0 2.6 0.00 0.00 0.00 43 1012.8
20260504230843 75 99 2.6 3.5 0.00 0.00 0.00 44 1012.7
20260504230340 76 282 0.0 3.5 0.00 0.00 0.00 43 1012.7
20260504225839 76 64 2.6 3.5 0.00 0.00 0.00 43 1012.5
20260504225335 76 116 2.6 3.5 0.00 0.00 0.00 42 1012.7
20260504224833 76 312 1.7 3.5 0.00 0.00 0.00 42 1012.6
20260504224329 76 67 2.6 3.5 0.00 0.00 0.00 41 1012.8
20260504223826 76 68 4.3 4.3 0.00 0.00 0.00 40 1012.8
20260504223321 76 148 1.7 2.6 0.00 0.00 0.00 40 1012.7
20260504222818 76 89 0.0 2.6 0.00 0.00 0.00 39 1012.7
20260504222315 77 31 3.5 4.3 0.00 0.00 0.00 39 1012.9
20260504221814 77 61 1.7 3.5 0.00 0.00 0.00 38 1012.8
20260504221310 77 76 0.9 3.5 0.00 0.00 0.00 40 1012.7
20260504220807 78 165 1.7 9.6 0.00 0.00 0.00 37 1012.9
20260504220304 79 23 0.9 3.5 0.00 0.00 0.00 36 1012.9
20260504215801 79 57 2.6 4.3 0.00 0.00 0.00 36 1012.9
20260504215257 80 66 2.6 4.3 0.00 0.00 0.00 36 1013.0
20260504214753 79 286 1.7 3.5 0.00 0.00 0.00 36 1012.8
20260504214250 79 45 3.5 7.8 0.00 0.00 0.00 36 1013.1
20260504213747 80 157 0.9 5.2 0.00 0.00 0.00 36 1013.2
20260504213243 80 128 4.3 8.7 0.00 0.00 0.00 34 1013.2
20260504212740 80 296 1.7 6.1 0.00 0.00 0.00 37 1012.9
20260504212237 80 257 1.7 4.3 0.00 0.00 0.00 37 1013.0
20260504211734 81 30 2.6 7.8 0.00 0.00 0.00 34 1013.1
20260504211230 81 285 1.7 3.5 0.00 0.00 0.00 40 1013.0
20260504210728 80 57 2.6 2.6 0.00 0.00 0.00 38 1013.1
20260504210225 80 1 0.9 3.5 0.00 0.00 0.00 37 1013.1
20260504205722 80 114 3.5 7.0 0.00 0.00 0.00 36 1013.1
20260504205220 80 86 2.6 7.0 0.00 0.00 0.00 37 1013.2
20260504204718 79 50 0.9 5.2 0.00 0.00 0.00 39 1013.2
20260504204216 80 257 0.9 7.0 0.00 0.00 0.00 42 1013.2
20260504203715 80 71 0.9 3.5 0.00 0.00 0.00 39 1013.5
20260504203212 79 42 3.5 5.2 0.00 0.00 0.00 41 1013.4
20260504202711 80 94 0.9 4.3 0.00 0.00 0.00 40 1013.3
20260504202209 80 139 1.7 4.3 0.00 0.00 0.00 39 1013.5
20260504201706 79 290 1.7 3.5 0.00 0.00 0.00 42 1013.7
20260504201203 80 232 0.0 2.6 0.00 0.00 0.00 40 1013.6
20260504200701 80 237 1.7 4.3 0.00 0.00 0.00 41 1013.6
20260504200157 80 276 2.6 5.2 0.00 0.00 0.00 40 1013.7
20260504195653 80 267 1.7 4.3 0.00 0.00 0.00 39 1013.8
20260504195149 79 70 2.6 2.6 0.00 0.00 0.00 44 1014.0
20260504194646 80 167 2.6 4.3 0.00 0.00 0.00 41 1013.8
20260504194142 80 290 0.9 2.6 0.00 0.00 0.00 43 1013.9
20260504193639 79 50 2.6 3.5 0.00 0.00 0.00 40 1013.8
20260504193137 79 29 0.9 5.2 0.00 0.00 0.00 44 1014.1
20260504192634 78 310 1.7 3.5 0.00 0.00 0.00 41 1014.2
20260504192132 78 245 1.7 7.0 0.00 0.00 0.00 40 1014.4
20260504191631 78 341 1.7 5.2 0.00 0.00 0.00 41 1014.4
20260504191127 78 306 0.0 4.3 0.00 0.00 0.00 49 1014.2
20260504190623 78 37 3.5 3.5 0.00 0.00 0.00 41 1014.4
20260504190120 77 59 1.7 3.5 0.00 0.00 0.00 43 1014.5
20260504185616 77 2 0.9 3.5 0.00 0.00 0.00 44 1014.5
20260504185113 77 192 0.0 4.3 0.00 0.00 0.00 41 1014.7
20260504184608 77 68 0.9 5.2 0.00 0.00 0.00 44 1014.7
20260504184103 77 73 0.9 5.2 0.00 0.00 0.00 42 1014.9
20260504183601 77 39 3.5 5.2 0.00 0.00 0.00 43 1015.0
20260504183059 77 48 1.7 3.5 0.00 0.00 0.00 44 1014.9
20260504182556 77 98 0.9 4.3 0.00 0.00 0.00 45 1015.1
20260504182053 77 80 2.6 3.5 0.00 0.00 0.00 42 1015.1
20260504181550 77 20 2.6 5.2 0.00 0.00 0.00 41 1015.4
20260504181048 77 47 5.2 6.1 0.00 0.00 0.00 43 1015.3
20260504180547 76 274 0.9 3.5 0.00 0.00 0.00 43 1015.4
20260504180046 76 110 2.6 5.2 0.00 0.00 0.00 41 1015.6
20260504175542 75 331 0.9 5.2 0.00 0.00 0.00 42 1015.5
20260504175039 75 58 1.7 6.1 0.00 0.00 0.00 42 1015.6
20260504174537 76 41 3.5 7.8 0.00 0.00 0.00 43 1015.5
20260504174033 76 110 0.0 4.3 0.00 0.00 0.00 44 1015.7
20260504173530 75 224 1.7 4.3 0.00 0.00 0.00 43 1015.7
20260504173028 75 71 5.2 7.8 0.00 0.00 0.00 42 1015.7
20260504172524 74 71 1.7 2.6 0.00 0.00 0.00 45 1015.9
20260504172020 74 19 1.7 3.5 0.00 0.00 0.00 44 1015.9
20260504171517 73 275 0.9 2.6 0.00 0.00 0.00 43 1015.9
20260504171014 73 174 0.9 5.2 0.00 0.00 0.00 44 1016.0
20260504170510 73 115 2.6 4.3 0.00 0.00 0.00 44 1016.0
20260504160431 69 85 3.5 4.3 0.00 0.00 0.00 46 1016.9